Location: ??????
(38.1303°N, 24.0039°E)
Time: 19:34:56
(UTC+00:00)

DELTA 2 R/B (1) - Pass Details

Date: 26 October 2021
Orbit: 790 x 802 km, 39.6° (Epoch: 01 December)

Event Time Altitude Azimuth Distance (km) Brightness Sun altitude
Rises 18:48:16 0° 248° (WSW) 3,293 7.4 -39.0°
Reaches altitude 10° 18:50:45 10° 247° (WSW) 2,363 6.5 -39.5°
Enters shadow 18:51:43 15° 246° (WSW) 2,009 6.0 -39.7°
